User: anonymous   Login
Location: Irma
(52.9170°N, 111.2330°W)
Time: 19:30:55
(UTC-06:00)
Language:

Cosmos 2279 Rocket - Orbit

View from above orbital plane
View from above orbital plane
View from above satellite
View from above satellite

Ground track
Ground track

The orbit data is extracted from the following two-line orbital elements,

1 23093U 94024B   16235.88090659 +.00000040 +00000-0 +24618-4 0  9997
2 23093 082.9503 336.3508 0011396 117.5898 242.6418 13.77701905590116
Epoch (UTC): 22 August 2016 21:08:30
Eccentricity: 0.0011396
inclination: 82.9503°
perigee height: 963 km
apogee height: 980 km
right ascension of ascending node: 336.3508°
argument of perigee: 117.5898°
revolutions per day: 13.77701905
mean anomaly at epoch: 242.6418°
orbit number at epoch: 59011

The dashed part of the orbit path shows where the satellite is in the earth's shadow,  

DLR